SL-23 R/B, 34112

Orbit data source: Space-Track

SL-23 R/B, 34112 is space debris in HEO originally from a launch on Thu, 26 Feb 2009 UTC launched from the Tyuratam Missile And Space Complex (TTMTR). Debris objects in space refer to the collection of defunct objects orbiting the Earth. Examples of debris include non-operational satellites, rocket bodies, and fragments generated from explosions, collisions, or faulty payload assembly.

Loading next visibility...
SL-23 R/B details
Identifier
34112, 2009-009B
Orbit
HEO
Last TLE update14 hours ago
Origin
Flag of CISSIS (CIS)
ManufacturerRKKE
MissionSpacecraft
Bus & MotorBLOK DM2, 11D58M
Mass2,540 kg wet, 2,540 kg dry
Launch date (UTC)
2009-02-26 (16 years ago)
Launch vehicleUnknown
Launch site
Tyuratam Missile And Space Complex (TTMTR)
Object type
Payload
Rocket body
Debris
Shape & HBRCyl + 1 Nozzle, 5.9 m
Radar Cross Section22.521 m², Large (>1 m²)

Expand to show TLE details & history

TLE from 14 hours ago
0 SL-23 R/B
1 34112U 09009B   25018.41572687 -.00000080  00000-0  00000-0 0  9994
2 34112  35.0428  38.4049 6899085 343.6291  32.4740  2.20448031128012
Epoch: 2025-01-18T09:58Z
Definitive object data (Epoch: 2025-01-18T09:58:38.801Z)
Latitude34.44628°
Longitude-126.99474°
Altitude12,554.456 km
Speed5.112 km/s
True Right ascension09h 22m 55s
True Declination34° 23' 09"
Sunlit
Object was in daylight at TLE epoch
Visualization TLE readout
Latitude16.96895°
Longitude-75.23984°
Altitude33,017.407 km
Speed2.062 km/s
Apparent Right ascension12h 48m 16s
Apparent Declination9° 52' 49"
Sunlit
Object is in daylight
Visualization observer readout
Local Sidereal Time00:35:26
Azimuth355.862° N
Elevation-40.115°
Doppler factor1
Orbital elements
Apogee altitude35,769.07 km
Perigee altitude1,355.708 km
Semi-major axis24,940.526 km
Eccentricity0.6899085
Inclination35.0428°
RAAN38.4049°
Arg. of periapsis343.6291°
True anomaly116.61007°
Mean anomaly32.474°
Eccentric anomaly69.49943°
Mean motion0.55104 °/min
BSTARUnknown
Orbital period653.31 mins
Loading maneuver chart data...
Loading historical data...
Loading historical data...
Loading historical data...
Loading historical data...
Loading historical data...
Loading historical data...
Loading historical data...
Other satellites on launch #9 in the year 2009 (2009-02-26 UTC)

SL-23 R/B Visibility forecast

Observer location: undefined°, undefined

Span
Click to sort rows by Start time (UTC) header in descending order
Start Az.
Max El. time (UTC)
Max El. Az.
Max El.
End time (UTC)
End Az.
566 mins2025-01-19 07:03:23.741Z258.765° W2025-01-19 07:31:23.741Z173.974° S44.712°2025-01-19 16:29:23.741Z188.58° SSW
|